Regional Weather Roundup
Issued by NWS

Home | Current Version | Previous Version | Graphics & Text | Print | Product List | Glossary Off
Versions: 1 2 3 4 5 6 7 8 9 10 11 12 13 14 15 16 17 18 19 20 21 22 23 24 25 26 27 28 29 30 31 32 33 34 35 36 37 38 39 40 41 42 43 44 45 46 47 48 49 50

000
ASUS43 KDMX 300607
RWRIA

WEATHER ROUNDUP FOR IOWA
NATIONAL WEATHER SERVICE DES MOINES IA
100 AM CDT SAT AUG 30 2014

NOTE: "FAIR" INDICATES FEW OR NO CLOUDS BELOW 12,000 FEET WITH NO
SIGNIFICANT WEATHER AND/OR OBSTRUCTIONS TO VISIBILITY.

* - THESE STATIONS ARE NOT NWS STATIONS...THUS NOT UNDER NWS
QUALITY CONTROL.  THEY ALSO DO NOT REPORT WEATHER SUCH
AS PRECIPITATION OR FOG.

IAZ001>003-012>014-020>022-031>034-043>046-300700-
   NORTHWEST IOWA

CITY           SKY/WX    TMP DP  RH WIND       PRES   REMARKS
CARROLL *      MOCLDY    66  66 100 SW5       29.82R
CHEROKEE *     CLOUDY    66  66 100 W3        29.83R
DENISON *      CLEAR     64  64 100 CALM      29.81S FOG
LE MARS *        N/A     64  64 100 CALM      29.84S
ORANGE CITY *  MOCLDY    64  63  94 W5        29.84R
SHELDON *      CLOUDY    63  63 100 W6        29.83R FOG
SPENCER          N/A     64  62  93 CALM      29.81S
6HR MIN TEMP:  64; 6HR MAX TEMP:  70; 6HR PCP:  0.03;

STORM LAKE *   FOG       66  66 100 W7        29.82S VSB 1/4
$$

IAZ055>058-069>071-079>083-090>094-300700-
   SOUTHWEST IOWA

CITY           SKY/WX    TMP DP  RH WIND       PRES   REMARKS
ATLANTIC *     CLOUDY    66  66 100 CALM      29.83S
AUDUBON *      CLEAR     68  64  88 CALM      29.84R
CLARINDA *     CLEAR     66  66 100 S3        29.86F
COUNCIL BLFS * CLEAR     66  66 100 CALM      29.83R FOG
CRESTON *      CLEAR     66  66 100 SW5       29.84F
HARLAN  *      FOG       64  64 100 CALM      29.87R VSB 1/2
LAMONI         MOCLDY    65  64  97 S7        29.84S
6HR MIN TEMP:  65; 6HR MAX TEMP:  74; 6HR PCP:  0.83;

RED OAK *        N/A     64  64 100 CALM      29.84S
SHENANDOAH *   PTCLDY    66  64  94 S3        29.85S
$$

IAZ047>049-059>061-072>074-084-300700-
   CENTRAL IOWA

CITY           SKY/WX    TMP DP  RH WIND       PRES   REMARKS
AMES           CLOUDY    67  66  97 SW8       29.79S
6HR MIN TEMP:  67; 6HR MAX TEMP:  72; 6HR PCP:  0.02;

ANKENY *       CLOUDY    70  66  88 S8        29.79F
CHARITON *     MOCLDY    66  64  94 CALM      29.82F
DES MOINES     CLOUDY    69  67  93 SW9       29.80F
6HR MIN TEMP:  69; 6HR MAX TEMP:  72; 6HR PCP:  0.18;

GRINNELL*      HVY RAIN  68  66  94 SW6       29.81S
KNOXVILLE *    LGT RAIN  66  64  94 SW8       29.81S
MARSHALLTOWN   CLOUDY    68  67  96 SW10      29.78S
6HR MIN TEMP:  68; 6HR MAX TEMP:  69; 6HR PCP:  0.01;

PELLA *        HVY RAIN  67  66  97 SW7       29.83S
PERRY *        LGT RAIN  66  66 100 W6        29.81S
$$

IAZ004>006-015-016-023>025-035-036-300700-
   NORTH CENTRAL IOWA

CITY           SKY/WX    TMP DP  RH WIND       PRES   REMARKS
ALGONA *       CLOUDY    68  68 100 NW3       29.80R
CLARION *      CLOUDY    68  68 100 W6        29.79R
ESTHERVILLE    MOCLDY    66  66 100 CALM      29.80R FOG
6HR MIN TEMP:  66; 6HR MAX TEMP:  71; 6HR PCP:  0.01;

FORT DODGE *   MOCLDY    66  64  94 W5        29.81R
MASON CITY     CLOUDY    67  66  97 CALM      29.80R
6HR MIN TEMP:  66; 6HR MAX TEMP:  72; 6HR PCP:  0.44;

FOREST CITY *  MOCLDY    64  64 100 CALM      29.79S
IOWA FALLS *   RAIN      68  67  95 W5        29.78F
$$

IAZ007>011-017>019-026>030-037>042-050>054-066-300700-
   NORTHEAST IOWA

CITY           SKY/WX    TMP DP  RH WIND       PRES   REMARKS
CEDAR RAPIDS   CLOUDY    70  70 100 S9        29.80S FOG
6HR MIN TEMP:  68; 6HR MAX TEMP:  70; 6HR PCP:  0.16;

CHARLES CITY * CLOUDY    68  66  94 S8        29.79R FOG
CLINTON *        N/A     70  66  88 S10       29.85S
DECORAH *      CLOUDY    68  68 100 CALM      29.78S FOG
DUBUQUE        CLOUDY    71  69  93 SW15      29.81R
6HR MIN TEMP:  71; 6HR MAX TEMP:  78; 6HR PCP:  0.07;

MONTICELLO *   CLOUDY    72  72 100 SW9G15    29.80F
OELWEIN *      CLOUDY    68  68 100 S7        29.80S FOG
WATERLOO       CLOUDY    68  66  93 S6        29.77S
6HR MIN TEMP:  68; 6HR MAX TEMP:  70; 6HR PCP:  0.08;

$$

IAZ064-065-067-068-078-300700-
   EAST CENTRAL IOWA

CITY           SKY/WX    TMP DP  RH WIND       PRES   REMARKS
DAVENPORT        N/A     70  68  93 S12       29.83S
6HR MIN TEMP:  70; 6HR MAX TEMP:  81; 6HR PCP:  0.05;

IOWA CITY        N/A     71  70  96 S6        29.81F
6HR MIN TEMP:  70; 6HR MAX TEMP:  73; 6HR PCP:  0.01;

MT. PLEASANT *   N/A     71  70  96 S7        29.83F FOG
MUSCATINE *    CLEAR     72  70  94 S7        29.82S
QUAD CITIES      N/A     71  68  90 S10       29.83R
6HR MIN TEMP:  71; 6HR MAX TEMP:  80; 6HR PCP:  0.05;

$$

IAZ062-063-075>077-085>089-095>099-300700-
   SOUTHEAST IOWA

CITY           SKY/WX    TMP DP  RH WIND       PRES   REMARKS
BURLINGTON     MOCLDY    71  70  96 S9        29.84S
6HR MIN TEMP:  70; 6HR MAX TEMP:  73; 6HR PCP: TRACE;

FAIRFIELD *    RAIN      70  66  88 W24G38    29.85R VSB 3/4
FORT MADISON * CLEAR     73  73 100 S8        29.85S
KEOKUK *       MOCLDY    72  72 100 S6        29.84S FOG
OSKALOOSA *    LGT RAIN  66  65  97 SW6       29.82S
CENTERVILLE *  LGT RAIN  66  66 100 SE5       29.86F
OTTUMWA        LGT RAIN  66  65  96 SW9       29.82F
6HR MIN TEMP:  66; 6HR MAX TEMP:  71; 6HR PCP:  0.52;

WASHINGTON *   PTCLDY    70  70 100 S7        29.81F
$$

ABBREVIATIONS USED IN REMARKS
   TC - TEMPERATURES IN CELSIUS
  WCI - WIND CHILL INDEX
   HX - HEAT INDEX
  VSB - VISIBILITY
$$



USA.gov is the U.S. government's official web portal to all federal, state and local government web resources and services.